Regional Weather Roundup
Issued by NWS

Home | Current Version | Previous Version | Graphics & Text | Print | Product List | Glossary On
Versions: 1 2 3 4 5 6 7 8 9 10 11 12 13 14 15 16 17 18 19 20 21 22 23 24 25 26 27 28 29 30 31 32 33 34 35 36 37 38 39 40 41 42 43 44 45 46 47 48 49 50
000
ASUS44 KMEG 240410
RWRTN
TENNESSEE HOURLY STATE WEATHER ROUNDUP
NATIONAL WEATHER SERVICE MEMPHIS TN
1100 PM CDT FRI SEP 23 2016

TNZ002-004-019-021-049-052-054-088>092-240500-
WEST TENNESSEE

CITY           SKY/WX    TMP DP  RH WIND       PRES   REMARKS
MEMPHIS INTL   CLEAR     83  66  56 CALM      30.03R
NWS MEMPHIS      N/A     73 N/A N/A MISG        N/A
JACKSON          N/A    N/A N/A N/A MISG      30.05R
DYERSBURG      CLEAR    N/A N/A N/A MISG      30.03S
UNION CITY     CLEAR     72  70  94 CALM      30.04R
PARIS          CLEAR     70  66  88 CALM      30.07R
LEXINGTON      CLEAR     72  70  94 CALM      30.05R
$$

TNZ008-025-027-028-033-062-065-066-240500-
NORTH MIDDLE TENNESSEE

CITY           SKY/WX    TMP DP  RH WIND       PRES   REMARKS
NASHVILLE      CLEAR     74  66  76 CALM      30.08R
PORTLAND       PTCLDY    70  68  94 CALM      30.08S
CLARKSVILLE    CLEAR     71  67  87 CALM      30.07R
SMYRNA         CLEAR     68  66  93 CALM      30.08R
COOKEVILLE     CLEAR     64  64 100 CALM      30.09S
GALLATIN       PTCLDY    70  66  88 CALM      30.10R
CROSSVILLE     CLEAR     65  62  90 CALM      30.15R
$$

TNZ061-075-076-078-094-096-097-240500-
SOUTH MIDDLE TENNESSEE

CITY           SKY/WX    TMP DP  RH WIND       PRES   REMARKS
FAYETTEVILLE   CLOUDY    73  64  73 NE6       30.08S
TULLAHOMA      CLEAR     66  61  82 CALM      30.11R
WINCHESTER     CLEAR     64  63  94 CALM      30.09S
MCMINNVILLE    CLEAR     66  66 100 CALM      30.10R
COLUMBIA       CLEAR    N/A N/A N/A CALM      30.06S
SHELBYVILLE    CLEAR     72  66  83 CALM      30.09R
$$

TNZ017-018-042-046-047-240500-
NORTHEAST TENNESSEE

CITY           SKY/WX    TMP DP  RH WIND       PRES   REMARKS
TRI CITIES     CLEAR     65  61  87 CALM      30.12R
ELIZABETHTON     N/A     63  61  94 CALM      30.12R
$$

TNZ012-013-036-069-073-074-240500-
CENTRAL EAST TENNESSEE

CITY           SKY/WX    TMP DP  RH WIND       PRES   REMARKS
KNOXVILLE      CLEAR     73  63  70 CALM      30.08R
OAK RIDGE      CLEAR     71  66  84 CALM      30.10R
DOWNTOWN KNOXV CLEAR     68  66  94 CALM      30.08S
GATLINBURG     CLEAR     66  61  82 CALM      30.09R
MORRISTOWN     CLEAR     70  63  78 CALM      30.10R
JACKSBORO      CLEAR     66  64  94 CALM      30.13S
$$

TNZ083-085-099-240500-
SOUTHEAST TENNESSEE

CITY           SKY/WX    TMP DP  RH WIND       PRES   REMARKS
CHATTANOOGA    PTCLDY    74  65  73 CALM      30.07R
$$

SKY/WX REPORTED AS FAIR MEANS FEW OR NO CLOUDS BELOW
12 THOUSAND FEET.





USA.gov is the U.S. government's official web portal to all federal, state and local government web resources and services.